Time,B instrument,Bx,By,Bz,sigma B,Ion instrument,Status,Tp_par,Tp_perp,carrot,r_sun,clat,clong,earth_he_angle,n_p,vp_x,vp_y,vp_z,vth_p_par,vth_p_perp
1980-07-21 01:20:08,1,-6.06667,12.6,0.166667,0.176383,1,1,42297.7,75685.6,1698,0.84120637,3.5605619,264.56287,106.91833,17.8636,350.742,53.629,49.0451,26.4251,35.348
1980-07-21 01:21:17,-1,nan,nan,nan,nan,1,4,nan,nan,1697,0.84117818,3.654417,264.61923,106.98642,nan,nan,nan,nan,nan,nan
1980-07-21 01:24:00,1,-10.625,-4.2,13.025,0.532682,1,1,70251.7,61738.9,1697,0.84118307,3.6543446,264.59579,106.98642,17.6634,345.127,48.1781,60.9734,34.0554,31.9255
1980-07-21 01:25:32,1,-11.9,-3.66667,13.3,0.385861,1,1,22641.4,51718.2,1697,0.84119767,3.6541281,264.58017,106.98642,13.1208,361.731,10.2304,76.9729,19.3334,29.2199
1980-07-21 01:28:14,1,-11.4333,-5.46667,11.3667,1.07393,1,1,31802.4,51971.3,1697,0.84121233,3.6539116,264.55673,106.98642,12.5798,366.385,4.4699,67.6106,22.9133,29.2914
1980-07-21 01:30:56,1,-7.4,-5.6,14.0333,0.980929,1,1,49850.2,45115.0,1697,0.84122211,3.6537676,264.52942,106.98643,13.2998,384.652,-8.93876,70.3931,28.6874,27.2909
1980-07-21 01:36:20,1,-11.1,8.9,-0.9,0.270801,1,1,32478.7,63046.5,1697,0.84125137,3.6533346,264.48254,106.98643,13.8537,353.878,54.013,14.5096,23.1557,32.2618
1980-07-21 01:39:02,1,-11.2333,8.96667,1.63333,0.33665,1,1,33915.4,44455.1,1697,0.84126598,3.6531181,264.4552,106.98643,10.1507,353.915,53.6957,43.0496,23.6623,27.0906
1980-07-21 01:41:44,1,-5.1,11.8,-2.875,0.967923,1,1,42143.6,62826.6,1697,0.84127575,3.6529732,264.43176,106.98643,16.6451,375.07,77.519,23.4935,26.3769,32.2055
1980-07-21 01:44:26,1,-0.6,-12.1333,2.73333,0.781736,1,1,130446.0,95234.9,1697,0.84129035,3.6527567,264.40833,106.98643,18.427,410.342,-17.5335,42.4041,46.4059,39.6512
1980-07-21 01:47:08,1,1.13333,-10.5333,-1.2,1.24276,1,1,111490.0,90187.2,1697,0.84130502,3.6525402,264.38098,106.98645,28.5739,410.624,-34.9959,27.1118,42.9019,38.586
1980-07-21 01:49:50,1,3.125,-9.5,7.0,0.985837,1,1,100262.0,77780.8,1697,0.84131473,3.6523962,264.35754,106.98645,27.4043,422.315,-31.1598,47.263,40.6843,35.8339
1980-07-21 01:52:32,1,8.3,-3.875,10.45,0.699553,1,1,121500.0,79615.8,1697,0.8413294,3.6521797,264.33411,106.98645,27.5112,427.698,-7.98231,48.1654,44.7863,36.2541
1980-07-21 01:55:14,1,1.7,-8.95,4.6,2.18002,1,1,173956.0,104353.0,1697,0.841344,3.6519632,264.30676,106.98645,29.8913,419.982,-22.8223,53.5475,53.5893,41.5059
1980-07-21 01:57:56,1,3.15,-10.25,4.625,1.38271,1,1,125278.0,84874.1,1697,0.84135377,3.6518192,264.28333,106.98645,26.756,412.939,-27.2665,32.2867,45.4775,37.4322
1980-07-21 02:00:38,1,6.675,-6.05,8.075,2.13454,1,1,145467.0,99538.9,1697,0.84136844,3.6516027,264.25992,106.98647,26.9556,422.322,-23.7754,36.8129,49.005,40.5372
1980-07-21 02:03:20,1,10.25,-0.75,6.9,0.764853,1,1,212884.0,122529.0,1697,0.84138304,3.6513863,264.23257,106.98647,28.8892,444.401,-11.2176,37.8368,59.2829,44.9756
1980-07-21 02:06:02,1,10.8,-3.2,6.4,0.442719,1,1,123084.0,121329.0,1697,0.84139764,3.6511698,264.20914,106.98647,24.8825,462.265,-22.7591,41.5544,45.0774,44.7549
1980-07-21 02:08:44,1,2.125,-8.75,0.3,3.7161,1,1,261511.0,126516.0,1697,0.84140736,3.6510258,264.18179,106.98647,28.3646,430.427,-35.2643,29.4226,65.7056,45.7015
1980-07-21 02:11:26,1,7.625,-6.4,1.425,0.937417,1,1,225886.0,193219.0,1697,0.84142202,3.6508093,264.15836,106.98647,32.4551,429.606,-24.2026,24.1076,61.0664,56.4785
1980-07-21 02:14:08,1,9.35,-7.175,0.575,1.0636,1,1,161332.0,102096.0,1697,0.84143662,3.6505928,264.13492,106.98647,32.1073,430.585,-27.5544,18.3498,51.6082,41.0546
1980-07-21 02:16:50,1,9.45,-6.4,2.45,1.8735,1,1,168404.0,122507.0,1697,0.84144634,3.6504488,264.10757,106.98647,29.4878,441.978,-28.3514,28.9212,52.7272,44.9715
1980-07-21 02:19:32,1,9.175,-5.975,2.0,0.740777,1,1,287232.0,147751.0,1697,0.84146094,3.6502323,264.08414,106.98647,35.9098,422.699,-23.016,28.4236,68.8611,49.3881
1980-07-21 02:22:14,1,11.05,3.1,1.55,1.19791,1,1,121318.0,139225.0,1697,0.84147561,3.6500158,264.0607,106.98647,26.3497,435.75,-15.3361,22.8442,44.7528,47.9421
1980-07-21 02:24:56,1,10.6333,1.66667,0.666667,0.509902,1,1,229292.0,144499.0,1697,0.84148532,3.6498718,264.03336,106.98647,31.0586,424.418,5.9279,19.0038,61.5251,48.8416
1980-07-21 02:27:38,1,5.675,5.45,-6.05,0.633936,1,1,250057.0,139778.0,1697,0.84149992,3.6496553,264.00992,106.98647,31.3276,411.185,18.0564,-2.32824,64.2506,48.0372
1980-07-21 02:30:20,1,-3.63333,-4.4,-5.76667,1.67664,1,1,247221.0,111943.0,1697,0.84151459,3.6494389,263.98648,106.98648,31.312,383.064,-15.6716,11.2394,63.8852,42.9888
1980-07-21 02:33:02,1,3.66667,-6.73333,-4.03333,0.770281,1,1,236443.0,123379.0,1697,0.84152919,3.6492224,263.95914,106.98648,32.105,395.296,-23.244,14.131,62.4772,45.1314
1980-07-21 02:35:44,1,8.25,7.25,-7.3,1.05357,1,1,88152.0,93685.8,1697,0.84153891,3.6490784,263.9357,106.98648,25.5345,416.826,24.2095,-2.37052,38.1482,39.3274
1980-07-21 02:38:26,-1,nan,nan,nan,nan,1,-3,nan,nan,1697,0.84155351,3.6488619,263.91226,106.98648,nan,398.247,34.0868,9.40685,nan,nan
1980-07-21 02:41:08,1,-11.8667,14.2667,6.86667,0.565685,1,1,42950.5,72131.5,1697,0.84156817,3.6486454,263.88492,106.98648,16.2509,370.306,28.0673,32.0793,26.6282,34.5081
1980-07-21 02:43:50,1,-8.625,11.725,11.225,0.458939,1,1,82205.7,74432.2,1697,0.84157789,3.6485014,263.86148,106.98648,19.2368,378.089,25.8332,57.5027,36.8391,35.0541
1980-07-21 02:46:32,1,-6.075,11.55,11.0,0.366572,1,1,92619.0,73552.6,1697,0.84159249,3.6482849,263.83804,106.98648,24.2754,371.784,31.2407,57.6328,39.1028,34.8463
1980-07-21 02:49:14,1,-2.8,12.2,11.9,0.339116,1,1,111970.0,67490.8,1697,0.84160709,3.6480684,263.8107,106.98648,23.6478,383.39,30.3722,63.8129,42.9942,33.3795
1980-07-21 02:51:56,1,-4.4,16.7333,3.13333,1.05093,1,1,62618.7,64340.8,1697,0.84161687,3.6479244,263.78726,106.98648,18.3051,381.349,37.6615,21.874,32.1522,32.5913
1980-07-21 02:54:38,1,-0.333333,18.1333,0.133333,0.46188,1,1,57192.5,64383.2,1697,0.84163147,3.6477079,263.75992,106.98648,17.8622,395.159,41.9419,9.57947,30.7275,32.602
1980-07-21 02:57:20,1,-4.66667,16.0,2.33333,0.253859,1,1,67699.5,69407.2,1697,0.84164608,3.6474915,263.73648,106.98648,19.3839,378.543,44.8457,27.9614,33.4311,33.8501
1980-07-21 03:00:02,1,4.3,14.3,-6.66667,1.08115,1,1,47643.6,58966.9,1697,0.84166074,3.6472759,263.71307,106.9865,16.6768,414.89,22.3764,-19.9427,28.0453,31.2005
1980-07-21 03:02:44,1,3.925,15.3,-3.25,0.457575,1,1,71435.5,72046.7,1697,0.84167045,3.647131,263.68573,106.9865,19.5775,408.074,47.2619,3.28306,34.3412,34.4878
1980-07-21 03:05:26,1,-0.125,17.7,-1.1,0.83479,1,1,53059.1,63254.1,1697,0.84168506,3.6469154,263.66229,106.9865,15.8229,410.638,40.8848,-1.56505,29.5963,32.3149
1980-07-21 03:08:08,1,4.2,15.2,-4.96667,0.549747,1,1,43960.7,56585.8,1697,0.84169966,3.646699,263.63885,106.9865,14.7659,419.818,42.131,-7.50554,26.9395,30.5641
1980-07-21 03:10:50,1,1.83333,16.4667,-2.06667,0.316228,1,1,58948.7,59676.0,1697,0.84170938,3.6465549,263.61151,106.9865,15.8467,423.884,39.3184,-0.794739,31.1957,31.3876
1980-07-21 03:13:32,1,1.76667,16.9333,-1.53333,0.547723,1,1,59956.5,61379.1,1697,0.84172398,3.6463385,263.58807,106.9865,14.932,419.039,34.7146,-12.3111,31.4612,31.8323
1980-07-21 03:16:14,1,3.66667,16.9667,-3.7,0.38873,1,1,41557.1,55932.6,1697,0.84173858,3.6461229,263.56464,106.9865,12.5936,412.273,29.7191,5.93245,26.1927,30.3872
1980-07-21 03:18:56,1,6.4,13.525,-7.675,0.498748,1,1,53191.1,61373.0,1697,0.8417483,3.6459789,263.53729,106.9865,14.2748,421.553,11.3511,-12.1912,29.6331,31.8307
1980-07-21 03:21:38,1,4.825,15.675,-5.1,0.297909,1,1,51711.7,45966.8,1697,0.8417629,3.6457624,263.51385,106.9865,13.1276,412.915,23.5094,2.81229,29.2181,27.5474
1980-07-21 03:24:20,1,5.675,15.525,-4.95,0.285044,1,1,50057.7,44852.1,1697,0.8417775,3.645546,263.49042,106.9865,13.5077,419.862,22.3826,2.05484,28.7471,27.2113
1980-07-21 03:27:02,1,6.3,15.1,-5.5,0.0,1,1,36639.4,44927.4,1697,0.84179211,3.6453304,263.46307,106.9865,13.3252,418.085,22.846,3.54816,24.5942,27.2341
1980-07-21 03:29:44,1,6.26667,14.9667,-5.73333,0.621825,1,1,44702.5,46090.0,1697,0.84180182,3.6451864,263.43964,106.9865,13.6479,417.845,22.4944,-0.868932,27.1659,27.5843
1980-07-21 03:32:26,1,6.3,14.2,-6.3,1.77636e-15,1,1,36229.8,45278.5,1697,0.84181643,3.6449699,263.4162,106.9865,17.6701,407.436,21.211,2.82061,24.4563,27.3403
1980-07-21 03:35:08,1,6.26667,14.3333,-6.16667,0.270801,1,1,43412.4,43651.7,1697,0.84183103,3.6447535,263.38885,106.9865,15.6957,409.096,19.3077,1.59866,26.771,26.8447
1980-07-21 03:37:50,1,6.06667,13.6333,-7.1,0.210819,1,1,30596.1,41833.6,1697,0.8418408,3.6446095,263.36542,106.9865,15.9692,410.099,16.5499,-3.85541,22.4746,26.2797
1980-07-21 03:40:32,1,5.35,12.4,-9.4,0.342783,1,1,41791.7,53021.4,1697,0.84185541,3.6443939,263.33807,106.9865,15.366,407.466,5.58026,-9.17458,26.2665,29.5858
1980-07-21 03:43:14,1,6.05,14.1,-7.8,0.259808,1,1,35185.1,46595.3,1697,0.84186995,3.6441774,263.31464,106.9865,13.3625,407.015,15.7173,4.11493,24.1011,27.7351
1980-07-21 03:45:56,1,6.175,16.175,-1.125,1.45795,1,1,52914.4,50648.6,1697,0.84187973,3.6440334,263.2912,106.9865,14.1269,412.41,35.9932,37.7152,29.556,28.9162
1980-07-21 03:48:38,1,5.65,15.1,-4.75,0.913783,1,1,37718.5,46711.9,1697,0.84189433,3.6438169,263.26385,106.9865,16.7111,414.954,26.7057,19.9119,24.9537,27.7697
1980-07-21 03:51:20,1,6.5,15.4667,-3.5,0.377124,1,1,40140.4,53318.0,1697,0.84190893,3.6436005,263.24042,106.9865,17.7047,415.674,30.5798,20.476,25.7424,29.6684
1980-07-21 03:54:02,1,6.45,15.25,-4.6,0.552268,1,1,44036.7,48215.0,1697,0.84192353,3.6433849,263.21698,106.9865,17.2532,410.898,28.6706,16.7546,26.9628,28.213
1980-07-21 03:56:44,1,6.36667,13.6,-6.83333,0.802773,1,1,46412.9,50319.3,1697,0.84193325,3.6432409,263.18964,106.9865,16.3826,405.503,28.0111,10.2078,27.6807,28.8221
1980-07-21 03:59:26,1,7.76667,8.56667,-11.5667,0.33665,1,1,36817.2,42681.8,1697,0.84194785,3.6430244,263.1662,106.9865,15.2118,415.192,13.8437,-2.19461,24.6538,26.5448
1980-07-21 04:02:08,1,9.325,8.675,-10.4,0.252488,1,1,30410.3,49669.0,1697,0.84196246,3.642808,263.14273,106.98648,17.1518,425.076,15.4236,2.66606,22.4062,28.6352
1980-07-21 04:04:50,1,8.075,8.0,-11.975,0.27157,1,1,37961.8,37343.8,1697,0.84197217,3.642664,263.11539,106.98648,15.4679,415.349,14.134,2.49909,25.0341,24.8294
1980-07-21 04:07:32,1,8.45,6.2,-12.3,0.4272,1,1,36732.0,45840.1,1697,0.84198672,3.6424475,263.09195,106.98648,16.0759,415.826,10.0715,-6.2762,24.6252,27.5094
1980-07-21 04:10:14,1,8.375,6.15,-12.4,0.976921,1,1,35103.6,38316.4,1697,0.84200132,3.642231,263.06851,106.98648,14.5027,409.841,13.1197,-0.411087,24.0732,25.1507
1980-07-21 04:12:56,1,8.8,3.55,-12.725,0.323071,1,1,42118.1,43261.2,1697,0.84201103,3.642087,263.04117,106.98648,16.1193,415.03,10.1144,-0.97725,26.3689,26.7243
1980-07-21 04:15:38,1,6.675,13.525,-8.15,0.785016,1,1,47538.7,50964.9,1697,0.84202564,3.6418705,263.01773,106.98648,15.5484,410.504,12.1324,-5.78918,28.0144,29.0064
1980-07-21 04:18:20,1,-2.075,17.1,6.25,0.974359,1,1,68166.2,206347.0,1697,0.84204018,3.641654,262.99429,106.98648,12.6315,394.295,10.4064,24.9226,33.5461,58.3656
1980-07-21 04:21:02,1,-0.933333,17.5333,5.06667,0.454606,1,1,95724.1,218541.0,1697,0.84205478,3.6414385,262.96695,106.98648,14.953,396.862,14.5275,22.7145,39.7529,60.0654
1980-07-21 04:23:44,1,-6.1,10.8667,12.7333,1.6964,1,1,89126.0,193507.0,1697,0.8420645,3.6412935,262.94351,106.98648,13.0889,378.65,-8.82176,66.7479,38.3584,56.5205
1980-07-21 04:26:26,1,-6.06667,6.46667,16.1667,0.583095,1,1,64682.1,186045.0,1697,0.8420791,3.641077,262.91617,106.98648,13.907,379.62,-27.4801,71.292,32.6776,55.4201
1980-07-21 04:29:08,1,-1.25,11.85,8.825,4.63917,1,1,86728.9,208657.0,1697,0.84209365,3.6408615,262.89273,106.98648,11.627,399.444,-3.46648,45.7965,37.839,58.6914
1980-07-21 04:31:50,1,2.725,13.65,-2.475,0.596867,1,1,130351.0,159467.0,1697,0.84210342,3.6407166,262.86929,106.98648,15.7932,418.995,-7.56199,-38.2533,46.389,51.3089
1980-07-21 04:34:32,1,2.325,13.05,-2.125,1.45817,1,1,159110.0,183156.0,1697,0.84211797,3.640501,262.84195,106.98647,15.7282,416.159,-2.66778,-25.9943,51.2515,54.988
1980-07-21 04:37:14,1,7.5,13.675,3.05,1.39082,1,1,125427.0,152358.0,1697,0.84213257,3.6402845,262.81851,106.98647,14.3423,440.218,-4.47123,-3.88865,45.5044,50.1523
1980-07-21 04:39:56,1,11.025,12.9,3.5,0.414578,1,1,124768.0,144264.0,1697,0.84214228,3.6401396,262.79507,106.98647,16.3929,445.324,-8.19213,-8.10351,45.3847,48.8019
1980-07-21 04:42:38,1,2.9,10.1333,-6.03333,0.520683,1,1,294140.0,213027.0,1697,0.84215689,3.639924,262.76773,106.98647,19.5591,411.041,-23.3969,-42.7901,69.6843,59.3027
1980-07-21 04:45:20,1,8.95,9.95,-3.9,0.324037,1,1,151672.0,150685.0,1697,0.84217143,3.6397076,262.74429,106.98647,17.3308,432.322,-14.2813,-26.5363,50.0393,49.8762
1980-07-21 04:48:02,1,9.975,10.0,-5.35,0.298957,1,1,91340.6,128855.0,1697,0.84218603,3.6394911,262.72086,106.98647,15.1965,440.964,-12.7865,-31.3516,38.832,46.122
1980-07-21 04:50:44,1,7.85,9.5,-6.8,0.563471,1,1,118353.0,126296.0,1697,0.84219575,3.6393471,262.69351,106.98647,14.6209,429.718,-15.2574,-34.9214,44.2026,45.6618
1980-07-21 04:53:26,1,7.975,6.425,-7.925,0.570636,1,1,214299.0,175550.0,1697,0.84221035,3.6391306,262.67007,106.98647,19.2119,424.229,-25.7084,-26.7287,59.4796,53.8341
1980-07-21 04:56:08,1,8.45,5.275,-8.3,0.298957,1,1,295594.0,185862.0,1697,0.8422249,3.6389141,262.64664,106.98647,23.8129,421.206,-25.9795,-20.9251,69.8563,55.3929
1980-07-21 04:58:50,1,8.0,5.575,-8.8,0.454835,1,1,244386.0,157306.0,1697,0.84223461,3.6387701,262.61929,106.98647,22.9582,416.344,-26.7518,-23.4677,63.5179,50.9601
1980-07-21 05:01:32,1,7.26667,9.43333,-7.73333,0.61101,1,1,188049.0,137344.0,1697,0.84224921,3.6385536,262.59586,106.98647,18.9728,424.561,-24.7509,-28.8421,55.7178,47.6171
1980-07-21 05:04:14,1,2.76667,14.9333,-3.43333,0.748331,1,1,95635.7,137417.0,1697,0.84226376,3.6383371,262.57239,106.98645,16.988,409.879,-7.0877,-25.4833,39.7345,47.6297
1980-07-21 05:06:56,1,2.975,13.75,-7.0,0.446514,1,1,87718.6,137410.0,1697,0.84227347,3.6381931,262.54504,106.98645,15.9399,413.681,-10.2452,-33.3484,38.0543,47.6285
1980-07-21 05:09:38,1,1.375,14.425,-3.7,0.49371,1,1,216331.0,222903.0,1697,0.84228808,3.6379766,262.52161,106.98645,19.8625,408.391,-9.01741,-32.6182,59.761,60.6618
1980-07-21 05:12:20,1,-3.825,13.425,8.7,0.709753,1,1,101963.0,197476.0,1697,0.84230262,3.6377611,262.49426,106.98645,12.4933,392.371,-12.4011,18.7605,41.0278,57.0972
1980-07-21 05:15:02,1,-3.35,14.9,7.3,0.701783,1,1,90673.4,179528.0,1697,0.84231722,3.6375446,262.47083,106.98645,11.508,387.667,-5.00794,-1.76994,38.6899,54.4408
1980-07-21 05:17:44,1,-2.05,14.9,8.8,0.390512,1,1,93084.8,198088.0,1697,0.84232688,3.6374006,262.44739,106.98645,11.86,408.358,-5.62739,14.8122,39.201,57.1857
1980-07-21 05:20:26,1,-0.15,15.85,6.1,0.158114,1,1,252792.0,178726.0,1697,0.84234148,3.6371841,262.42004,106.98645,15.4418,411.502,-18.9308,0.301589,64.6011,54.319
1980-07-21 05:23:08,1,0.233333,15.9667,7.33333,0.553775,1,1,139320.0,152291.0,1697,0.84235603,3.6369686,262.39661,106.98643,11.0308,417.821,-13.4115,6.66161,47.9585,50.1412
1980-07-21 05:25:50,1,-0.666667,16.1,3.76667,0.557773,1,1,97122.6,165950.0,1697,0.84236574,3.6368237,262.37317,106.98643,11.018,409.15,-9.29874,-18.2412,40.0422,52.3415
1980-07-21 05:28:32,1,-2.65,14.05,12.0,0.561249,1,1,69159.0,178445.0,1697,0.84238034,3.6366081,262.34583,106.98643,11.6702,399.938,-19.9729,34.3272,33.7895,54.2763
1980-07-21 05:31:14,1,-1.7,13.9,12.225,0.672216,1,1,97707.3,200567.0,1697,0.84239489,3.6363916,262.32239,106.98643,12.7359,404.546,-17.5678,30.0349,40.1626,57.5424
1980-07-21 05:33:56,1,-1.775,9.075,15.25,0.900694,1,1,110689.0,173034.0,1697,0.8424046,3.6362476,262.29895,106.98643,11.8986,401.69,-37.6412,48.5149,42.7474,53.4471
1980-07-21 05:36:38,-1,nan,nan,nan,nan,1,4,nan,nan,1697,0.84241915,3.6360312,262.27161,106.98643,nan,nan,nan,nan,nan,nan
1980-07-21 05:39:20,1,-1.3,9.05,10.675,3.05113,1,1,638923.0,198874.0,1697,0.84243375,3.6358147,262.24817,106.98643,17.9658,407.738,-57.1607,-2.16646,102.703,57.299
1980-07-21 05:42:02,1,-4.25,-0.8,5.625,3.23332,1,1,352663.0,358875.0,1697,0.84244829,3.6355991,262.2247,106.98642,23.2887,403.463,-91.4091,-9.66761,76.3023,76.9715
1980-07-21 05:44:44,1,-1.63333,-8.3,6.23333,0.466667,1,1,390145.0,284886.0,1697,0.84245801,3.6354551,262.19736,106.98642,23.8166,405.588,-80.4387,-12.8425,80.2548,68.5793
1980-07-21 05:47:26,1,-2.725,-8.025,1.15,3.14504,1,1,369455.0,293671.0,1697,0.84247255,3.6352386,262.17392,106.98642,22.8207,414.502,-71.5932,-11.468,78.0978,69.6287
1980-07-21 05:50:08,1,-0.875,-10.425,1.05,0.318198,1,1,333607.0,216960.0,1697,0.84248716,3.6350222,262.15048,106.98642,21.5054,409.234,-69.0828,-2.16789,74.2122,59.8477
1980-07-21 05:52:50,1,-0.45,-10.725,0.4,0.307205,1,1,311591.0,228816.0,1697,0.84249687,3.6348782,262.12314,106.98642,22.3491,410.578,-71.1326,-4.41529,71.7217,61.4612
1980-07-21 05:55:32,1,1.025,-10.025,-0.15,0.732291,1,1,386406.0,232719.0,1697,0.84251142,3.6346617,262.0997,106.98642,23.7201,410.163,-75.7628,-6.64654,79.8693,61.9831
1980-07-21 05:58:14,1,-5.8,-5.4,-3.9,0.458258,1,1,369854.0,225214.0,1697,0.84252602,3.6344461,262.07236,106.98642,23.0315,399.862,-67.7114,-14.1963,78.14,60.9755
1980-07-21 06:00:56,1,-7.4,1.5,-3.625,2.8813,1,1,407350.0,241875.0,1697,0.84253573,3.6343012,262.04892,106.98642,24.896,389.231,-74.3327,-27.0155,82.0052,63.1907
1980-07-21 06:03:38,1,-5.125,-8.825,-4.075,1.01026,1,1,284114.0,194005.0,1697,0.84255028,3.6340857,262.02548,106.9864,21.0151,394.895,-63.2356,-21.2815,68.4864,56.5932
1980-07-21 06:06:20,1,-5.76667,-4.76667,-5.63333,0.282843,1,1,333040.0,247444.0,1697,0.84256482,3.6338701,261.99814,106.9864,24.6963,395.23,-55.6293,-24.0747,74.1492,63.914
1980-07-21 06:09:02,1,-5.83333,-5.5,-7.1,0.329983,1,1,239415.0,238077.0,1697,0.84257936,3.6336536,261.9747,106.9864,21.6036,396.7,-51.2668,-17.5203,62.8685,62.6926
1980-07-21 06:11:44,1,-4.8,-2.525,-8.1,0.408503,1,1,302114.0,227821.0,1697,0.84258908,3.6335096,261.95126,106.9864,23.9533,391.277,-53.7255,-22.1599,70.6225,61.3275
1980-07-21 06:14:26,1,-6.1,-2.35,-8.1,0.45,1,1,220473.0,240576.0,1697,0.84260362,3.6332941,261.92389,106.98639,21.7734,398.462,-51.6155,-22.6748,60.3303,63.0208
1980-07-21 06:17:08,1,-3.8,-0.225,-8.875,0.49371,1,1,359119.0,252389.0,1697,0.84261817,3.6330776,261.90045,106.98639,23.1803,387.407,-57.2001,-17.5276,76.9975,64.5496
1980-07-21 06:19:50,1,-1.925,2.725,-9.3,1.04821,1,1,512213.0,193511.0,1697,0.84262788,3.6329336,261.87701,106.98639,24.7853,388.312,-61.9265,-32.3846,91.9567,56.5212
1980-07-21 06:22:32,1,-5.35,-2.45,-8.7,0.787401,1,1,254672.0,288374.0,1697,0.84264243,3.6327181,261.84967,106.98639,22.8984,388.466,-58.7309,-12.0521,64.8409,68.9979
1980-07-21 06:25:14,1,-6.975,-3.1,-9.3,0.521416,1,1,179638.0,253426.0,1697,0.84265697,3.6325016,261.82623,106.98637,18.8772,396.346,-59.8866,-4.77822,54.4574,64.6819
1980-07-21 06:27:56,1,-7.33333,-4.8,-6.26667,0.681502,1,1,167948.0,218222.0,1697,0.84266669,3.6323576,261.8028,106.98637,21.5075,393.979,-60.7391,-5.53863,52.6558,60.0215
1980-07-21 06:30:38,1,-9.7,-4.0,-5.0,0.0,1,1,211027.0,214505.0,1697,0.84268123,3.6321421,261.77545,106.98637,22.7763,392.678,-56.4509,-15.9766,59.0237,59.5081
1980-07-21 06:33:20,1,-10.4,-3.5,-5.4,8.88178e-16,1,1,184305.0,213077.0,1697,0.84269577,3.6319256,261.75201,106.98637,22.8481,390.224,-58.3788,-15.431,55.1603,59.3098
1980-07-21 06:36:02,1,-11.525,-5.25,-3.7,0.272718,1,1,170901.0,188471.0,1697,0.84271032,3.6317101,261.72858,106.98637,19.9489,396.16,-57.9081,-16.3855,53.1166,55.7802
1980-07-21 06:38:44,1,-9.8,-1.25,-7.925,0.569539,1,1,180117.0,164645.0,1697,0.84272003,3.631566,261.7012,106.98636,26.621,387.879,-56.536,-22.7795,54.53,52.1354
1980-07-21 06:41:26,1,-9.925,-2.85,-10.0,0.734422,1,1,111704.0,191497.0,1697,0.84273458,3.6313496,261.67776,106.98636,17.639,397.644,-55.0386,-23.6297,42.943,56.2262
1980-07-21 06:44:08,1,-8.7,-3.05,-12.075,0.859869,1,1,88257.0,193419.0,1697,0.84274912,3.631134,261.65042,106.98636,16.5208,400.428,-45.12,-45.235,38.1709,56.5077
1980-07-21 06:46:50,1,-8.8,-0.9,-12.375,0.61796,1,1,149141.0,257172.0,1697,0.84275883,3.63099,261.62698,106.98636,16.3331,392.431,-50.3071,-31.5142,49.6199,65.1583
1980-07-21 06:49:32,1,-6.33333,0.6,-13.3667,0.397213,1,1,148621.0,220743.0,1697,0.84277338,3.6307735,261.60355,106.98634,15.6673,396.615,-49.3207,-34.828,49.5334,60.3672
1980-07-21 06:52:14,1,-11.6667,-3.16667,-11.0,0.333333,1,1,119281.0,246225.0,1697,0.84278792,3.630558,261.5762,106.98634,14.3382,396.288,-53.1841,-23.0689,44.3755,63.7565
1980-07-21 06:54:56,1,-11.1333,-1.73333,-13.3667,0.282843,1,1,59595.9,113071.0,1697,0.84279764,3.6304131,261.55276,106.98634,15.428,392.364,-57.8981,-26.4664,31.3665,43.2049
1980-07-21 06:57:38,1,-11.0,0.675,-13.7,0.248747,1,1,63680.1,125910.0,1697,0.84281218,3.6301975,261.52933,106.98634,14.3997,389.99,-52.6672,-27.3287,32.4235,45.592
1980-07-21 07:00:20,1,-10.95,1.475,-13.6,0.446514,1,1,77596.5,135067.0,1697,0.84282678,3.629982,261.50198,106.98634,14.9147,388.016,-45.2649,-33.1167,35.7914,47.2208
1980-07-21 07:03:02,1,-6.175,8.4,-13.1,1.28525,1,1,96499.3,171313.0,1697,0.84284127,3.6297655,261.47852,106.98633,13.5758,400.227,-34.5414,-31.3012,39.9135,53.1806
1980-07-21 07:05:44,1,-6.425,8.15,-12.0,0.452079,1,1,140217.0,202046.0,1697,0.84285098,3.6296215,261.45508,106.98633,16.5166,384.683,-41.4149,-37.1037,48.1126,57.7541
1980-07-21 07:08:26,1,-6.625,8.05,-11.5,0.253722,1,1,133077.0,215163.0,1697,0.84286553,3.629406,261.42773,106.98633,16.8077,377.666,-43.339,-34.9228,46.8716,59.5993
1980-07-21 07:11:08,1,-5.56667,8.83333,-11.4,0.253859,1,1,133096.0,188355.0,1697,0.84288007,3.6291895,261.4043,106.98631,16.0867,383.782,-39.7186,-35.1763,46.8749,55.763
1980-07-21 07:13:50,1,-6.46667,6.13333,-10.8667,0.282843,1,1,156214.0,231902.0,1697,0.84288973,3.6290455,261.38086,106.98631,18.706,374.741,-57.1252,-41.205,50.7829,61.8743
1980-07-21 07:16:32,1,-4.96667,8.6,-10.3667,0.42947,1,1,111516.0,206188.0,1697,0.84290427,3.62883,261.35352,106.98631,16.7952,380.879,-43.9755,-43.5297,42.9069,58.3432
1980-07-21 07:19:14,1,-3.825,8.075,-10.425,0.686021,1,1,153115.0,210164.0,1697,0.84291881,3.6286135,261.33005,106.9863,17.5702,383.983,-46.1419,-45.3588,50.2767,58.9029
1980-07-21 07:21:56,1,-3.5,8.36667,-10.4,0.359011,1,1,131737.0,194833.0,1697,0.84292853,3.6284695,261.30661,106.9863,16.0652,385.732,-44.7818,-39.1033,46.6351,56.7139
1980-07-21 07:24:38,1,-1.15,7.275,-10.75,1.09858,1,1,160775.0,212697.0,1697,0.84294301,3.6282539,261.27927,106.9863,19.101,387.693,-34.2393,-47.8043,51.5189,59.2568
1980-07-21 07:27:20,1,-1.125,7.0,-10.8,0.277263,1,1,156909.0,199564.0,1697,0.84295756,3.6280375,261.25583,106.98628,18.0119,394.666,-41.9231,-51.899,50.8958,57.3983
1980-07-21 07:30:02,1,-3.025,5.875,-11.125,0.406971,1,1,178268.0,201636.0,1697,0.8429721,3.6278219,261.22849,106.98628,18.5695,385.302,-46.8285,-47.3957,54.2493,57.6955
1980-07-21 07:32:44,1,-0.6,6.9,-11.0,8.88178e-16,1,1,179607.0,205535.0,1697,0.84298182,3.6276779,261.20505,106.98628,17.7312,396.411,-38.8916,-47.439,54.4527,58.2507
1980-07-21 07:35:26,1,-3.86667,4.63333,-11.2,0.24037,1,1,193011.0,210698.0,1697,0.8429963,3.6274614,261.18158,106.98627,18.4481,381.555,-50.6814,-45.0637,56.448,58.9778
1980-07-21 07:38:08,1,-3.13333,5.0,-11.2667,0.343188,1,1,133726.0,239512.0,1697,0.84301084,3.6272459,261.15424,106.98627,17.2482,385.026,-46.8435,-40.3841,46.9857,62.8813
1980-07-21 07:40:50,1,-2.6,4.325,-10.3,0.496865,1,1,196546.0,256717.0,1697,0.84302056,3.6271009,261.1308,106.98627,19.3299,387.996,-44.7468,-48.1986,56.9626,65.1006
1980-07-21 07:43:32,1,-3.9,3.825,-10.475,0.662382,1,1,162449.0,206784.0,1697,0.8430351,3.6268854,261.10736,106.98627,19.2652,388.521,-42.8142,-48.5577,51.7865,58.4273
1980-07-21 07:46:14,1,-4.56667,4.9,-10.9333,0.24037,1,1,120023.0,224518.0,1697,0.84304965,3.6266699,261.08002,106.98625,16.4731,381.709,-43.8908,-45.0726,44.5133,60.8812
1980-07-21 07:48:56,1,-2.1,6.025,-11.475,1.03622,1,1,129569.0,211376.0,1697,0.8430593,3.6265249,261.05658,106.98625,16.4306,391.266,-39.0517,-50.0617,46.2497,59.0726